Regional Weather Roundup
Issued by NWS Cleveland, OH

Home | Current Version | Previous Version | Text Only | Print | Product List | Glossary Off
Versions: 1 2 3 4 5 6 7 8 9 10 11 12 13 14 15 16 17 18 19 20 21 22 23 24 25 26 27 28 29 30 31 32 33 34 35 36 37 38 39 40 41 42 43 44 45 46 47 48 49 50

000
ASUS41 KCLE 251710
RWRCLE
OHIO REGIONAL WEATHER ROUNDUP
NATIONAL WEATHER SERVICE WILMINGTON, OH
100 PM EDT THU MAY 25 2017

NOTE: "FAIR" INDICATES FEW OR NO CLOUDS BELOW 12,000 FEET WITH NO
SIGNIFICANT WEATHER AND/OR OBSTRUCTIONS TO VISIBILITY.

OHZ001>008-015>018-024>027-034-035-043-044-251800-
   NORTHWEST OHIO

CITY           SKY/WX    TMP DP  RH WIND       PRES   REMARKS
DEFIANCE       CLOUDY    60  57  89 N7        29.49R
FINDLAY        CLOUDY    67  58  72 N9        29.44R
TOLEDO EXPRESS CLOUDY    62  59  90 N9        29.46S
TOLEDO EXEC    CLOUDY    64  60  87 N7        29.47S
LIMA           PTSUNNY   66  60  81 NW12      29.45R
$$

OHZ009>014-019>023-028>033-038-089-251800-
   NORTHEAST OHIO

CITY           SKY/WX    TMP DP  RH WIND       PRES   REMARKS
CLE-HOPKINS    LGT RAIN  62  59  90 SE6       29.49R FOG
CLE-LAKEFRONT  LGT RAIN  60  57  89 SE6       29.45S
CUY CO. ARPT   CLOUDY    61  59  94 S7        29.47S FOG
LORAIN-ELYRIA  NOT AVBL
ASHTABULA      CLOUDY    58  56  93 S5        29.48F
AKRON-CANTON   LGT RAIN  61  56  83 S6        29.48R
WOOSTER        CLOUDY    63  55  75 SE6       29.47R
MANSFIELD      CLOUDY    64  54  69 CALM      29.46R
YOUNGSTOWN     RAIN      58  56  93 SW3       29.47S FOG
$$

OHZ042-051>053-060>062-070>072-077>081-251800-
  SOUTHWEST OHIO

CITY           SKY/WX    TMP DP  RH WIND       PRES   REMARKS
CINC-COVINGTON LGT RAIN  61  59  93 W15G25    29.49R
CINC-LUNKEN    CLOUDY    67  62  84 W15       29.47R
HAMILTON       PTSUNNY   68  15  13 W9        29.47R
DAYTON         PTSUNNY   67  57  70 W6        29.47R
WRIGHT-PAT AFB NOT AVBL
DAYTON GENERAL PTSUNNY   68  56  65 N8        29.45R
WILMINGTON     PTSUNNY   62  57  83 VRB3      29.46R
$$

OHZ036-037-039>041-045>050-054>059-063>069-073>076-082>088-251800-
  CENTRAL AND SOUTHEAST OHIO

CITY           SKY/WX    TMP DP  RH WIND       PRES   REMARKS
COLUMBUS       CLOUDY    63  58  83 S8        29.45S
OSU AIRPORT    CLOUDY    64  59  83 SW8       29.44S
BOLTON FIELD   CLOUDY    64  57  77 S14       29.46S
RICKENBACK AFB PTSUNNY   63  58  83 S10       29.46R
NEWARK         CLOUDY    60  56  86 S6        29.46S
MARION         PTSUNNY   66  54  65 SE6       29.46R
LANCASTER      CLOUDY    66  58  75 S8        29.47S
ZANESVILLE     LGT RAIN  59  56  89 S8        29.48S FOG
NEW PHILLY     CLOUDY    61  56  83 SW5       29.49R
$$



USA.gov is the U.S. government's official web portal to all federal, state and local government web resources and services.